Home   Weather   Bismarck   Past weeks

Flag for USA Past Weather in Bismarck, North Dakota, USA — Yesterday and Last 2 Weeks

Now
76 °F

Clear.


Feels Like: 78 °F
Forecast: 58 / 78 °F
Wind: 12 mph from Northwest

Location: Bismarck Municipal Airport

Current Time: Aug 19, 2017 at 11:01:46 pm

Latest Report: Aug 19, 2017 at 9:52 pm


Visibility: 10 mi

Pressure: 29.80 "Hg (28.09 "Hg at 513m altitude)

Humidity: 48%

Dew Point: 55 °F

Location of BismarckLocation

Past Weather in Bismarck — Graph

°F

Bismarck Temperature Yesterday

Maximum temperature yesterday: 83 °F (at 3:52 pm)
Minimum temperature yesterday: 58 °F (at 6:52 am)
Average temperature yesterday: 70 °F

High & Low Weather Summary for the Past Weeks

 TemperatureHumidityPressure
High86 °F (Aug 19, 5:52 pm)100% (Aug 7, 12:08 am)30.23 "Hg (Aug 7, 12:08 am)
Low50 °F (Aug 14, 4:41 am)32% (Aug 7, 5:52 pm)29.71 "Hg (Aug 19, 5:52 pm)
Average66 °F75%29.98 "Hg
* Reported Aug 4 8:52 pm — Aug 19 8:52 pm, Bismarck. Weather by CustomWeather, © 2017

Note: Actual official high and low records may vary slightly from our data, if they occured in-between our weather recording intervals... More about our weather records

Advertising

Bismarck Weather History for the Previous 24 Hours

Scroll right to see more
 ConditionsComfort  
Time TempWeatherWind HumidityBarometerVisibility
8:52 pm
Sat, Aug 19
80 °FClear.16 mph41%29.76 "Hg10 mi
7:52 pm84 °FSunny.5 mph57%29.72 "Hg10 mi
6:52 pm86 °FSunny.5 mph48%29.71 "Hg10 mi
5:52 pm86 °FSunny.6 mph46%29.71 "Hg10 mi
4:52 pm84 °FSunny.6 mph49%29.72 "Hg10 mi
3:52 pm85 °FSunny.7 mph50%29.72 "Hg10 mi
2:52 pm82 °FSunny.9 mph51%29.72 "Hg10 mi
1:52 pm84 °FSunny.10 mph48%29.72 "Hg10 mi
12:52 pm82 °FSunny.13 mph49%29.75 "Hg10 mi
11:52 am79 °FSunny.12 mph54%29.76 "Hg10 mi
10:52 am76 °FSunny.9 mph62%29.78 "Hg10 mi
9:52 am71 °FSunny.8 mph71%29.79 "Hg10 mi
8:52 am65 °FSunny.9 mph85%29.81 "Hg9 mi
7:52 am61 °FSunny.6 mph90%29.82 "Hg7 mi
6:52 am57 °FSunny.7 mph93%29.83 "Hg7 mi
5:52 am58 °FClear.6 mph93%29.84 "Hg8 mi
4:52 am59 °FClear.5 mph87%29.85 "Hg9 mi
3:52 am59 °FClear.6 mph87%29.86 "Hg8 mi
2:52 am59 °FClear.No wind87%29.88 "Hg8 mi
1:52 am61 °FClear.No wind81%29.89 "Hg8 mi
12:52 am61 °FClear.No wind81%29.89 "Hg8 mi
11:52 pm
Fri, Aug 18
64 °FClear.3 mph73%29.89 "Hg9 mi
Weather by CustomWeather, © 2017

See weather overviewHow to use our weather pages